Year,Month,Day,Hour,Minute,Value (Times are PST for windgust in km/hr)
2012,09,08,00,01,1.60
2012,09,08,00,02,1.60
2012,09,08,00,03,3.20
2012,09,08,00,04,3.20
2012,09,08,00,05,1.60
2012,09,08,00,08,1.60
2012,09,08,00,09,1.60
2012,09,08,00,24,1.60
2012,09,08,00,32,1.60
2012,09,08,00,35,1.60
2012,09,08,00,36,3.20
2012,09,08,00,37,3.20
2012,09,08,00,38,1.60
2012,09,08,00,39,1.60
2012,09,08,00,41,1.60
2012,09,08,00,42,3.20
2012,09,08,00,46,1.60
2012,09,08,00,49,1.60
2012,09,08,00,51,1.60
2012,09,08,00,53,1.60
2012,09,08,00,54,3.20
2012,09,08,00,55,3.20
2012,09,08,00,56,1.60
2012,09,08,01,00,1.60
2012,09,08,01,01,1.60
2012,09,08,01,09,1.60
2012,09,08,01,13,1.60
2012,09,08,01,39,1.60
2012,09,08,03,30,1.60
2012,09,08,03,31,1.60
2012,09,08,03,32,1.60
2012,09,08,03,34,4.80
2012,09,08,03,35,4.80
2012,09,08,03,36,1.60
2012,09,08,03,37,1.60
2012,09,08,03,38,3.20
2012,09,08,03,39,3.20
2012,09,08,03,40,3.20
2012,09,08,03,42,1.60
2012,09,08,03,45,1.60
2012,09,08,03,47,3.20
2012,09,08,03,48,3.20
2012,09,08,03,54,1.60
2012,09,08,03,59,4.80
2012,09,08,04,00,4.80
2012,09,08,04,01,1.60
2012,09,08,04,02,3.20
2012,09,08,04,04,1.60
2012,09,08,04,05,3.20
2012,09,08,04,06,3.20
2012,09,08,04,07,1.60
2012,09,08,04,12,4.80
2012,09,08,04,13,4.80
2012,09,08,04,14,3.20
2012,09,08,04,15,3.20
2012,09,08,04,16,3.20
2012,09,08,04,17,1.60
2012,09,08,04,18,1.60
2012,09,08,04,19,1.60
2012,09,08,04,20,1.60
2012,09,08,04,21,1.60
2012,09,08,04,22,1.60
2012,09,08,04,23,1.60
2012,09,08,04,24,1.60
2012,09,08,04,25,1.60
2012,09,08,04,26,3.20
2012,09,08,04,29,1.60
2012,09,08,04,32,1.60
2012,09,08,04,33,3.20
2012,09,08,04,34,3.20
2012,09,08,04,35,1.60
2012,09,08,04,36,4.80
2012,09,08,04,37,3.20
2012,09,08,04,38,3.20
2012,09,08,04,39,3.20
2012,09,08,04,40,3.20
2012,09,08,04,41,4.80
2012,09,08,04,42,3.20
2012,09,08,04,43,3.20
2012,09,08,04,46,3.20
2012,09,08,04,47,3.20
2012,09,08,04,48,3.20
2012,09,08,04,49,4.80
2012,09,08,04,50,3.20
2012,09,08,04,51,3.20
2012,09,08,04,52,3.20
2012,09,08,04,53,3.20
2012,09,08,04,54,3.20
2012,09,08,04,55,3.20
2012,09,08,04,56,4.80
2012,09,08,04,57,1.60
2012,09,08,04,58,1.60
2012,09,08,04,59,1.60
2012,09,08,05,00,1.60
2012,09,08,05,01,3.20
2012,09,08,05,02,1.60
2012,09,08,05,03,1.60
2012,09,08,05,04,1.60
2012,09,08,05,07,1.60
2012,09,08,05,09,1.60
2012,09,08,05,10,3.20
2012,09,08,05,11,1.60
2012,09,08,05,12,1.60
2012,09,08,05,13,1.60
2012,09,08,05,16,1.60
2012,09,08,05,17,1.60
2012,09,08,05,19,1.60
2012,09,08,05,23,1.60
2012,09,08,05,24,1.60
2012,09,08,05,26,1.60
2012,09,08,05,31,4.80
2012,09,08,05,32,1.60
2012,09,08,05,33,1.60
2012,09,08,05,34,1.60
2012,09,08,05,35,1.60
2012,09,08,05,36,1.60
2012,09,08,05,37,3.20
2012,09,08,05,38,4.80
2012,09,08,05,39,6.40
2012,09,08,05,40,9.60
2012,09,08,05,41,8.10
2012,09,08,05,42,6.40
2012,09,08,05,43,8.10
2012,09,08,05,44,6.40
2012,09,08,05,45,8.10
2012,09,08,05,46,1.60
2012,09,08,05,47,4.80
2012,09,08,05,49,1.60
2012,09,08,05,50,1.60
2012,09,08,05,52,1.60
2012,09,08,05,53,1.60
2012,09,08,05,56,1.60
2012,09,08,05,59,3.20
2012,09,08,06,00,6.40
2012,09,08,06,01,4.80
2012,09,08,06,11,3.20
2012,09,08,06,12,3.20
2012,09,08,06,13,3.20
2012,09,08,06,17,1.60
2012,09,08,06,20,1.60
2012,09,08,06,21,1.60
2012,09,08,06,22,1.60
2012,09,08,06,24,1.60
2012,09,08,06,25,1.60
2012,09,08,06,27,3.20
2012,09,08,06,28,1.60
2012,09,08,06,29,3.20
2012,09,08,06,30,1.60
2012,09,08,06,31,1.60
2012,09,08,06,39,1.60
2012,09,08,06,53,1.60
2012,09,08,07,15,1.60
2012,09,08,07,16,1.60
2012,09,08,07,22,1.60
2012,09,08,07,23,3.20
2012,09,08,07,24,3.20
2012,09,08,07,25,1.60
2012,09,08,07,26,1.60
2012,09,08,07,28,1.60
2012,09,08,07,29,1.60
2012,09,08,07,30,4.80
2012,09,08,07,31,3.20
2012,09,08,07,32,3.20
2012,09,08,07,33,1.60
2012,09,08,07,34,1.60
2012,09,08,07,35,1.60
2012,09,08,07,36,3.20
2012,09,08,07,37,1.60
2012,09,08,07,38,1.60
2012,09,08,08,11,1.60
2012,09,08,08,29,1.60
2012,09,08,08,34,1.60
2012,09,08,08,35,4.80
2012,09,08,08,37,3.20
2012,09,08,08,38,3.20
2012,09,08,08,39,3.20
2012,09,08,08,40,1.60
2012,09,08,08,41,3.20
2012,09,08,08,42,3.20
2012,09,08,08,43,4.80
2012,09,08,08,44,3.20
2012,09,08,08,45,3.20
2012,09,08,08,46,3.20
2012,09,08,08,47,3.20
2012,09,08,08,48,8.10
2012,09,08,08,49,6.40
2012,09,08,08,50,6.40
2012,09,08,08,51,4.80
2012,09,08,08,52,8.10
2012,09,08,08,53,4.80
2012,09,08,08,54,6.40
2012,09,08,08,55,6.40
2012,09,08,08,56,6.40
2012,09,08,08,57,3.20
2012,09,08,08,58,4.80
2012,09,08,09,00,4.80
2012,09,08,09,01,6.40
2012,09,08,09,02,6.40
2012,09,08,09,03,4.80
2012,09,08,09,04,4.80
2012,09,08,09,05,3.20
2012,09,08,09,06,4.80
2012,09,08,09,07,4.80
2012,09,08,09,08,4.80
2012,09,08,09,09,6.40
2012,09,08,09,10,4.80
2012,09,08,09,11,4.80
2012,09,08,09,12,4.80
2012,09,08,09,13,4.80
2012,09,08,09,14,4.80
2012,09,08,09,15,4.80
2012,09,08,09,16,6.40
2012,09,08,09,17,4.80
2012,09,08,09,18,4.80
2012,09,08,09,19,4.80
2012,09,08,09,20,4.80
2012,09,08,09,21,4.80
2012,09,08,09,22,6.40
2012,09,08,09,23,4.80
2012,09,08,09,24,4.80
2012,09,08,09,25,4.80
2012,09,08,09,26,4.80
2012,09,08,09,27,4.80
2012,09,08,09,28,4.80
2012,09,08,09,29,6.40
2012,09,08,09,30,6.40
2012,09,08,09,31,4.80
2012,09,08,09,32,4.80
2012,09,08,09,33,4.80
2012,09,08,09,34,3.20
2012,09,08,09,35,3.20
2012,09,08,09,36,1.60
2012,09,08,09,37,4.80
2012,09,08,09,38,3.20
2012,09,08,09,39,4.80
2012,09,08,09,40,4.80
2012,09,08,09,41,3.20
2012,09,08,09,42,3.20
2012,09,08,09,43,3.20
2012,09,08,09,44,4.80
2012,09,08,09,45,4.80
2012,09,08,09,46,3.20
2012,09,08,09,47,1.60
2012,09,08,09,48,1.60
2012,09,08,09,49,1.60
2012,09,08,09,50,1.60
2012,09,08,09,51,3.20
2012,09,08,09,52,3.20
2012,09,08,09,53,4.80
2012,09,08,09,54,3.20
2012,09,08,09,55,1.60
2012,09,08,09,56,3.20
2012,09,08,09,57,6.40
2012,09,08,09,58,6.40
2012,09,08,09,59,4.80
2012,09,08,10,00,4.80
2012,09,08,10,01,6.40
2012,09,08,10,02,6.40
2012,09,08,10,03,6.40
2012,09,08,10,04,4.80
2012,09,08,10,05,3.20
2012,09,08,10,06,3.20
2012,09,08,10,07,4.80
2012,09,08,10,08,6.40
2012,09,08,10,09,6.40
2012,09,08,10,10,6.40
2012,09,08,10,11,4.80
2012,09,08,10,12,3.20
2012,09,08,10,13,4.80
2012,09,08,10,14,3.20
2012,09,08,10,15,1.60
2012,09,08,10,16,3.20
2012,09,08,10,17,4.80
2012,09,08,10,18,3.20
2012,09,08,10,19,6.40
2012,09,08,10,20,6.40
2012,09,08,10,21,6.40
2012,09,08,10,22,3.20
2012,09,08,10,23,4.80
2012,09,08,10,24,3.20
2012,09,08,10,25,1.60
2012,09,08,10,26,4.80
2012,09,08,10,27,4.80
2012,09,08,10,28,3.20
2012,09,08,10,29,3.20
2012,09,08,10,30,3.20
2012,09,08,10,31,4.80
2012,09,08,10,32,3.20
2012,09,08,10,33,1.60
2012,09,08,10,34,4.80
2012,09,08,10,35,4.80
2012,09,08,10,36,4.80
2012,09,08,10,37,4.80
2012,09,08,10,38,1.60
2012,09,08,10,39,4.80
2012,09,08,10,40,3.20
2012,09,08,10,41,4.80
2012,09,08,10,42,3.20
2012,09,08,10,43,3.20
2012,09,08,10,44,4.80
2012,09,08,10,45,3.20
2012,09,08,10,46,3.20
2012,09,08,10,47,4.80
2012,09,08,10,48,6.40
2012,09,08,10,49,3.20
2012,09,08,10,50,6.40
2012,09,08,10,51,6.40
2012,09,08,10,52,3.20
2012,09,08,10,53,6.40
2012,09,08,10,54,8.10
2012,09,08,10,55,3.20
2012,09,08,10,56,4.80
2012,09,08,10,57,4.80
2012,09,08,10,58,3.20
2012,09,08,10,59,4.80
2012,09,08,11,00,4.80
2012,09,08,11,01,3.20
2012,09,08,11,02,3.20
2012,09,08,11,03,1.60
2012,09,08,11,04,4.80
2012,09,08,11,05,1.60
2012,09,08,11,07,1.60
2012,09,08,11,08,3.20
2012,09,08,11,09,3.20
2012,09,08,11,10,3.20
2012,09,08,11,11,3.20
2012,09,08,11,12,4.80
2012,09,08,11,13,4.80
2012,09,08,11,14,4.80
2012,09,08,11,15,3.20
2012,09,08,11,16,4.80
2012,09,08,11,17,3.20
2012,09,08,11,18,1.60
2012,09,08,11,19,3.20
2012,09,08,11,20,1.60
2012,09,08,11,21,1.60
2012,09,08,11,22,4.80
2012,09,08,11,23,3.20
2012,09,08,11,24,4.80
2012,09,08,11,25,4.80
2012,09,08,11,26,3.20
2012,09,08,11,27,6.40
2012,09,08,11,28,4.80
2012,09,08,11,29,3.20
2012,09,08,11,30,4.80
2012,09,08,11,31,1.60
2012,09,08,11,32,4.80
2012,09,08,11,33,4.80
2012,09,08,11,34,4.80
2012,09,08,11,35,3.20
2012,09,08,11,36,3.20
2012,09,08,11,37,6.40
2012,09,08,11,38,3.20
2012,09,08,11,39,3.20
2012,09,08,11,40,3.20
2012,09,08,11,41,1.60
2012,09,08,11,42,1.60
2012,09,08,11,43,4.80
2012,09,08,11,44,4.80
2012,09,08,11,45,4.80
2012,09,08,11,46,4.80
2012,09,08,11,47,4.80
2012,09,08,11,48,4.80
2012,09,08,11,49,3.20
2012,09,08,11,50,3.20
2012,09,08,11,51,3.20
2012,09,08,11,52,3.20
2012,09,08,11,53,3.20
2012,09,08,11,54,3.20
2012,09,08,11,55,3.20
2012,09,08,11,56,3.20
2012,09,08,11,57,4.80
2012,09,08,11,58,3.20
2012,09,08,11,59,4.80
2012,09,08,12,00,4.80
2012,09,08,12,01,4.80
2012,09,08,12,02,4.80
2012,09,08,12,03,3.20
2012,09,08,12,04,3.20
2012,09,08,12,05,3.20
2012,09,08,12,06,3.20
2012,09,08,12,07,4.80
2012,09,08,12,08,6.40
2012,09,08,12,09,6.40
2012,09,08,12,10,8.10
2012,09,08,12,11,8.10
2012,09,08,12,12,6.40
2012,09,08,12,13,6.40
2012,09,08,12,14,9.60
2012,09,08,12,15,8.10
2012,09,08,12,16,8.10
2012,09,08,12,17,8.10
2012,09,08,12,18,9.60
2012,09,08,12,19,8.10
2012,09,08,12,20,8.10
2012,09,08,12,21,6.40
2012,09,08,12,22,6.40
2012,09,08,12,23,6.40
2012,09,08,12,24,6.40
2012,09,08,12,25,6.40
2012,09,08,12,26,4.80
2012,09,08,12,27,8.10
2012,09,08,12,28,6.40
2012,09,08,12,29,8.10
2012,09,08,12,30,8.10
2012,09,08,12,31,4.80
2012,09,08,12,32,8.10
2012,09,08,12,33,3.20
2012,09,08,12,34,4.80
2012,09,08,12,35,4.80
2012,09,08,12,36,4.80
2012,09,08,12,37,6.40
2012,09,08,12,38,3.20
2012,09,08,12,39,4.80
2012,09,08,12,40,4.80
2012,09,08,12,41,6.40
2012,09,08,12,42,6.40
2012,09,08,12,43,4.80
2012,09,08,12,44,3.20
2012,09,08,12,45,1.60
2012,09,08,12,46,4.80
2012,09,08,12,47,6.40
2012,09,08,12,48,3.20
2012,09,08,12,49,6.40
2012,09,08,12,50,6.40
2012,09,08,12,51,8.10
2012,09,08,12,52,8.10
2012,09,08,12,53,8.10
2012,09,08,12,54,6.40
2012,09,08,12,55,8.10
2012,09,08,12,56,8.10
2012,09,08,12,57,6.40
2012,09,08,12,58,8.10
2012,09,08,12,59,8.10
2012,09,08,13,00,6.40
2012,09,08,13,01,6.40
2012,09,08,13,02,6.40
2012,09,08,13,03,4.80
2012,09,08,13,04,4.80
2012,09,08,13,05,8.10
2012,09,08,13,06,8.10
2012,09,08,13,07,6.40
2012,09,08,13,08,8.10
2012,09,08,13,09,6.40
2012,09,08,13,10,4.80
2012,09,08,13,11,6.40
2012,09,08,13,12,6.40
2012,09,08,13,13,6.40
2012,09,08,13,14,6.40
2012,09,08,13,15,3.20
2012,09,08,13,16,8.10
2012,09,08,13,17,4.80
2012,09,08,13,18,6.40
2012,09,08,13,19,4.80
2012,09,08,13,20,4.80
2012,09,08,13,21,6.40
2012,09,08,13,22,8.10
2012,09,08,13,23,6.40
2012,09,08,13,24,4.80
2012,09,08,13,25,8.10
2012,09,08,13,26,8.10
2012,09,08,13,27,6.40
2012,09,08,13,28,4.80
2012,09,08,13,29,4.80
2012,09,08,13,30,6.40
2012,09,08,13,31,6.40
2012,09,08,13,32,6.40
2012,09,08,13,33,6.40
2012,09,08,13,34,8.10
2012,09,08,13,35,6.40
2012,09,08,13,36,6.40
2012,09,08,13,37,8.10
2012,09,08,13,38,8.10
2012,09,08,13,39,6.40
2012,09,08,13,40,4.80
2012,09,08,13,41,6.40
2012,09,08,13,42,8.10
2012,09,08,13,43,9.60
2012,09,08,13,44,8.10
2012,09,08,13,45,6.40
2012,09,08,13,46,9.60
2012,09,08,13,47,8.10
2012,09,08,13,48,8.10
2012,09,08,13,49,9.60
2012,09,08,13,50,6.40
2012,09,08,13,51,9.60
2012,09,08,13,52,6.40
2012,09,08,13,53,9.60
2012,09,08,13,54,8.10
2012,09,08,13,55,9.60
2012,09,08,13,56,9.60
2012,09,08,13,57,6.40
2012,09,08,13,58,6.40
2012,09,08,13,59,11.30
2012,09,08,14,00,9.60
2012,09,08,14,01,9.60
2012,09,08,14,02,11.30
2012,09,08,14,03,11.30
2012,09,08,14,04,8.10
2012,09,08,14,05,9.60
2012,09,08,14,06,9.60
2012,09,08,14,07,8.10
2012,09,08,14,08,8.10
2012,09,08,14,09,6.40
2012,09,08,14,10,8.10
2012,09,08,14,11,4.80
2012,09,08,14,12,8.10
2012,09,08,14,13,9.60
2012,09,08,14,14,8.10
2012,09,08,14,15,9.60
2012,09,08,14,16,8.10
2012,09,08,14,17,8.10
2012,09,08,14,18,8.10
2012,09,08,14,19,6.40
2012,09,08,14,20,8.10
2012,09,08,14,21,6.40
2012,09,08,14,22,8.10
2012,09,08,14,23,8.10
2012,09,08,14,24,8.10
2012,09,08,14,25,8.10
2012,09,08,14,26,8.10
2012,09,08,14,27,8.10
2012,09,08,14,28,8.10
2012,09,08,14,29,9.60
2012,09,08,14,30,4.80
2012,09,08,14,31,6.40
2012,09,08,14,32,8.10
2012,09,08,14,33,4.80
2012,09,08,14,34,3.20
2012,09,08,14,35,4.80
2012,09,08,14,36,4.80
2012,09,08,14,37,3.20
2012,09,08,14,38,3.20
2012,09,08,14,39,6.40
2012,09,08,14,40,3.20
2012,09,08,14,41,3.20
2012,09,08,14,42,6.40
2012,09,08,14,43,4.80
2012,09,08,14,44,3.20
2012,09,08,14,45,3.20
2012,09,08,14,46,8.10
2012,09,08,14,47,4.80
2012,09,08,14,48,4.80
2012,09,08,14,49,6.40
2012,09,08,14,50,3.20
2012,09,08,14,51,6.40
2012,09,08,14,52,3.20
2012,09,08,14,53,8.10
2012,09,08,14,54,6.40
2012,09,08,14,55,4.80
2012,09,08,14,56,6.40
2012,09,08,14,57,3.20
2012,09,08,14,58,6.40
2012,09,08,14,59,6.40
2012,09,08,15,00,6.40
2012,09,08,15,01,8.10
2012,09,08,15,02,8.10
2012,09,08,15,03,3.20
2012,09,08,15,04,4.80
2012,09,08,15,05,6.40
2012,09,08,15,06,4.80
2012,09,08,15,07,11.30
2012,09,08,15,08,6.40
2012,09,08,15,09,8.10
2012,09,08,15,10,6.40
2012,09,08,15,11,8.10
2012,09,08,15,12,6.40
2012,09,08,15,13,3.20
2012,09,08,15,14,3.20
2012,09,08,15,15,1.60
2012,09,08,15,16,6.40
2012,09,08,15,17,4.80
2012,09,08,15,18,3.20
2012,09,08,15,19,6.40
2012,09,08,15,20,9.60
2012,09,08,15,21,8.10
2012,09,08,15,22,8.10
2012,09,08,15,23,6.40
2012,09,08,15,24,6.40
2012,09,08,15,25,4.80
2012,09,08,15,26,4.80
2012,09,08,15,27,4.80
2012,09,08,15,28,3.20
2012,09,08,15,29,3.20
2012,09,08,15,30,3.20
2012,09,08,15,31,6.40
2012,09,08,15,32,4.80
2012,09,08,15,33,6.40
2012,09,08,15,34,6.40
2012,09,08,15,35,4.80
2012,09,08,15,36,4.80
2012,09,08,15,37,3.20
2012,09,08,15,38,4.80
2012,09,08,15,39,3.20
2012,09,08,15,40,3.20
2012,09,08,15,41,4.80
2012,09,08,15,42,4.80
2012,09,08,15,43,4.80
2012,09,08,15,44,4.80
2012,09,08,15,45,4.80
2012,09,08,15,46,4.80
2012,09,08,15,47,4.80
2012,09,08,15,48,6.40
2012,09,08,15,49,4.80
2012,09,08,15,50,6.40
2012,09,08,15,51,6.40
2012,09,08,15,52,4.80
2012,09,08,15,53,9.60
2012,09,08,15,54,4.80
2012,09,08,15,55,6.40
2012,09,08,15,56,4.80
2012,09,08,15,57,6.40
2012,09,08,15,58,9.60
2012,09,08,15,59,11.30
2012,09,08,16,00,14.50
2012,09,08,16,01,11.30
2012,09,08,16,02,11.30
2012,09,08,16,03,11.30
2012,09,08,16,04,9.60
2012,09,08,16,05,9.60
2012,09,08,16,06,11.30
2012,09,08,16,07,11.30
2012,09,08,16,08,9.60
2012,09,08,16,09,11.30
2012,09,08,16,10,11.30
2012,09,08,16,11,9.60
2012,09,08,16,12,4.80
2012,09,08,16,13,3.20
2012,09,08,16,14,4.80
2012,09,08,16,15,3.20
2012,09,08,16,16,6.40
2012,09,08,16,17,1.60
2012,09,08,16,18,6.40
2012,09,08,16,19,6.40
2012,09,08,16,20,4.80
2012,09,08,16,21,6.40
2012,09,08,16,22,3.20
2012,09,08,16,23,3.20
2012,09,08,16,24,6.40
2012,09,08,16,25,4.80
2012,09,08,16,26,9.60
2012,09,08,16,27,14.50
2012,09,08,16,28,14.50
2012,09,08,16,29,11.30
2012,09,08,16,30,8.10
2012,09,08,16,31,14.50
2012,09,08,16,32,9.60
2012,09,08,16,33,9.60
2012,09,08,16,34,9.60
2012,09,08,16,35,6.40
2012,09,08,16,36,3.20
2012,09,08,16,37,6.40
2012,09,08,16,38,8.10
2012,09,08,16,39,8.10
2012,09,08,16,40,4.80
2012,09,08,16,41,11.30
2012,09,08,16,42,14.50
2012,09,08,16,43,8.10
2012,09,08,16,44,8.10
2012,09,08,16,45,1.60
2012,09,08,16,46,4.80
2012,09,08,16,47,4.80
2012,09,08,16,48,8.10
2012,09,08,16,49,6.40
2012,09,08,16,50,3.20
2012,09,08,16,51,3.20
2012,09,08,16,52,3.20
2012,09,08,16,53,6.40
2012,09,08,16,54,4.80
2012,09,08,16,55,4.80
2012,09,08,16,56,6.40
2012,09,08,16,57,8.10
2012,09,08,16,58,4.80
2012,09,08,16,59,6.40
2012,09,08,17,00,12.90
2012,09,08,17,01,16.10
2012,09,08,17,02,11.30
2012,09,08,17,03,11.30
2012,09,08,17,04,12.90
2012,09,08,17,05,8.10
2012,09,08,17,06,4.80
2012,09,08,17,07,4.80
2012,09,08,17,08,1.60
2012,09,08,17,09,1.60
2012,09,08,17,10,1.60
2012,09,08,17,11,1.60
2012,09,08,17,12,4.80
2012,09,08,17,13,4.80
2012,09,08,17,14,4.80
2012,09,08,17,15,1.60
2012,09,08,17,16,6.40
2012,09,08,17,17,3.20
2012,09,08,17,18,4.80
2012,09,08,17,19,6.40
2012,09,08,17,20,1.60
2012,09,08,17,21,1.60
2012,09,08,17,22,4.80
2012,09,08,17,23,8.10
2012,09,08,17,24,4.80
2012,09,08,17,25,6.40
2012,09,08,17,26,6.40
2012,09,08,17,27,4.80
2012,09,08,17,28,1.60
2012,09,08,17,29,1.60
2012,09,08,17,30,1.60
2012,09,08,17,31,1.60
2012,09,08,17,32,1.60
2012,09,08,17,33,4.80
2012,09,08,17,34,1.60
2012,09,08,17,35,4.80
2012,09,08,17,36,3.20
2012,09,08,17,37,4.80
2012,09,08,17,38,8.10
2012,09,08,17,39,8.10
2012,09,08,17,40,9.60
2012,09,08,17,41,4.80
2012,09,08,17,42,9.60
2012,09,08,17,43,6.40
2012,09,08,17,44,20.90
2012,09,08,17,45,16.10
2012,09,08,17,46,8.10
2012,09,08,17,47,6.40
2012,09,08,17,48,4.80
2012,09,08,17,49,8.10
2012,09,08,17,50,4.80
2012,09,08,17,51,6.40
2012,09,08,17,52,8.10
2012,09,08,17,53,9.60
2012,09,08,17,54,4.80
2012,09,08,17,55,3.20
2012,09,08,17,56,3.20
2012,09,08,17,57,4.80
2012,09,08,17,58,4.80
2012,09,08,17,59,4.80
2012,09,08,18,00,6.40
2012,09,08,18,01,4.80
2012,09,08,18,02,9.60
2012,09,08,18,03,4.80
2012,09,08,18,04,8.10
2012,09,08,18,05,3.20
2012,09,08,18,06,8.10
2012,09,08,18,07,8.10
2012,09,08,18,08,4.80
2012,09,08,18,09,6.40
2012,09,08,18,10,3.20
2012,09,08,18,11,3.20
2012,09,08,18,12,4.80
2012,09,08,18,13,1.60
2012,09,08,18,14,3.20
2012,09,08,18,15,4.80
2012,09,08,18,16,3.20
2012,09,08,18,17,8.10
2012,09,08,18,18,4.80
2012,09,08,18,19,4.80
2012,09,08,18,20,4.80
2012,09,08,18,21,3.20
2012,09,08,18,22,4.80
2012,09,08,18,23,4.80
2012,09,08,18,24,3.20
2012,09,08,18,25,1.60
2012,09,08,18,26,1.60
2012,09,08,18,27,1.60
2012,09,08,18,28,1.60
2012,09,08,18,29,6.40
2012,09,08,18,30,3.20
2012,09,08,18,31,4.80
2012,09,08,18,32,4.80
2012,09,08,18,33,6.40
2012,09,08,18,34,4.80
2012,09,08,18,35,4.80
2012,09,08,18,36,4.80
2012,09,08,18,37,3.20
2012,09,08,18,38,1.60
2012,09,08,18,39,3.20
2012,09,08,18,40,1.60
2012,09,08,18,41,3.20
2012,09,08,18,42,4.80
2012,09,08,18,43,1.60
2012,09,08,18,44,3.20
2012,09,08,18,45,6.40
2012,09,08,18,46,9.60
2012,09,08,18,47,9.60
2012,09,08,18,48,1.60
2012,09,08,18,49,4.80
2012,09,08,18,50,8.10
2012,09,08,18,51,9.60
2012,09,08,18,52,9.60
2012,09,08,18,53,8.10
2012,09,08,18,54,6.40
2012,09,08,18,55,4.80
2012,09,08,18,56,1.60
2012,09,08,18,58,1.60
2012,09,08,18,59,4.80
2012,09,08,19,00,4.80
2012,09,08,19,02,1.60
2012,09,08,19,09,1.60
2012,09,08,19,10,3.20
2012,09,08,19,12,1.60
2012,09,08,19,14,1.60
2012,09,08,19,15,3.20
2012,09,08,19,16,8.10
2012,09,08,19,17,4.80
2012,09,08,19,18,4.80
2012,09,08,19,19,3.20
2012,09,08,19,20,6.40
2012,09,08,19,21,6.40
2012,09,08,19,22,4.80
2012,09,08,19,23,3.20
2012,09,08,19,24,3.20
2012,09,08,19,25,3.20
2012,09,08,19,26,3.20
2012,09,08,19,27,4.80
2012,09,08,19,28,6.40
2012,09,08,19,29,4.80
2012,09,08,19,30,6.40
2012,09,08,19,31,3.20
2012,09,08,19,32,1.60
2012,09,08,19,33,3.20
2012,09,08,19,34,3.20
2012,09,08,19,36,4.80
2012,09,08,19,37,6.40
2012,09,08,19,38,1.60
2012,09,08,19,39,1.60
2012,09,08,19,40,1.60
2012,09,08,19,41,6.40
2012,09,08,19,42,3.20
2012,09,08,19,43,3.20
2012,09,08,19,44,3.20
2012,09,08,19,45,3.20
2012,09,08,19,47,4.80
2012,09,08,19,48,8.10
2012,09,08,19,51,3.20
2012,09,08,19,52,3.20
2012,09,08,19,53,8.10
2012,09,08,19,54,8.10
2012,09,08,19,55,1.60
2012,09,08,19,56,3.20
2012,09,08,19,57,1.60
2012,09,08,19,59,1.60
2012,09,08,20,00,4.80
2012,09,08,20,01,8.10
2012,09,08,20,02,9.60
2012,09,08,20,03,4.80
2012,09,08,20,04,9.60
2012,09,08,20,05,9.60
2012,09,08,20,06,4.80
2012,09,08,20,07,8.10
2012,09,08,20,08,8.10
2012,09,08,20,09,4.80
2012,09,08,20,10,6.40
2012,09,08,20,11,6.40
2012,09,08,20,12,4.80
2012,09,08,20,13,3.20
2012,09,08,20,14,1.60
2012,09,08,20,15,8.10
2012,09,08,20,16,9.60
2012,09,08,20,17,4.80
2012,09,08,20,18,8.10
2012,09,08,20,19,9.60
2012,09,08,20,20,9.60
2012,09,08,20,21,16.10
2012,09,08,20,22,12.90
2012,09,08,20,23,8.10
2012,09,08,20,24,8.10
2012,09,08,20,25,9.60
2012,09,08,20,26,4.80
2012,09,08,20,27,8.10
2012,09,08,20,28,8.10
2012,09,08,20,29,3.20
2012,09,08,20,30,3.20
2012,09,08,20,31,6.40
2012,09,08,20,32,6.40
2012,09,08,20,33,11.30
2012,09,08,20,34,6.40
2012,09,08,20,35,8.10
2012,09,08,20,36,4.80
2012,09,08,20,37,4.80
2012,09,08,20,38,4.80
2012,09,08,20,39,1.60
2012,09,08,20,40,9.60
2012,09,08,20,41,6.40
2012,09,08,20,42,4.80
2012,09,08,20,43,1.60
2012,09,08,20,44,8.10
2012,09,08,20,45,9.60
2012,09,08,20,46,9.60
2012,09,08,20,47,9.60
2012,09,08,20,48,1.60
2012,09,08,20,49,8.10
2012,09,08,20,50,3.20
2012,09,08,20,51,6.40
2012,09,08,20,52,8.10
2012,09,08,20,53,6.40
2012,09,08,20,54,6.40
2012,09,08,20,55,4.80
2012,09,08,20,56,4.80
2012,09,08,20,57,6.40
2012,09,08,20,58,3.20
2012,09,08,20,59,1.60
2012,09,08,21,00,1.60
2012,09,08,21,01,1.60
2012,09,08,21,02,1.60
2012,09,08,21,03,6.40
2012,09,08,21,04,4.80
2012,09,08,21,05,9.60
2012,09,08,21,06,1.60
2012,09,08,21,07,9.60
2012,09,08,21,08,9.60
2012,09,08,21,09,1.60
2012,09,08,21,10,6.40
2012,09,08,21,11,6.40
2012,09,08,21,12,3.20
2012,09,08,21,13,1.60
2012,09,08,21,14,6.40
2012,09,08,21,15,8.10
2012,09,08,21,16,3.20
2012,09,08,21,17,1.60
2012,09,08,21,18,19.30
2012,09,08,21,19,14.50
2012,09,08,21,20,14.50
2012,09,08,21,21,6.40
2012,09,08,21,22,8.10
2012,09,08,21,23,8.10
2012,09,08,21,24,6.40
2012,09,08,21,25,8.10
2012,09,08,21,26,14.50
2012,09,08,21,27,17.70
2012,09,08,21,28,20.90
2012,09,08,21,29,22.50
2012,09,08,21,30,27.40
2012,09,08,21,31,37.00
2012,09,08,21,32,17.70
2012,09,08,21,33,29.00
2012,09,08,21,34,14.50
2012,09,08,21,35,22.50
2012,09,08,21,36,24.20
2012,09,08,21,37,43.50
2012,09,08,21,38,43.50
2012,09,08,21,39,27.40
2012,09,08,21,40,32.20
2012,09,08,21,41,16.10
2012,09,08,21,42,27.40
2012,09,08,21,43,29.00
2012,09,08,21,44,30.60
2012,09,08,21,45,30.60
2012,09,08,21,46,35.40
2012,09,08,21,47,32.20
2012,09,08,21,48,32.20
2012,09,08,21,49,22.50
2012,09,08,21,50,30.60
2012,09,08,21,51,25.70
2012,09,08,21,52,43.50
2012,09,08,21,53,38.60
2012,09,08,21,54,41.80
2012,09,08,21,55,40.20
2012,09,08,21,56,38.60
2012,09,08,21,57,38.60
2012,09,08,21,58,45.10
2012,09,08,21,59,41.80
2012,09,08,22,00,40.20
2012,09,08,22,01,37.00
2012,09,08,22,02,30.60
2012,09,08,22,03,35.40
2012,09,08,22,04,37.00
2012,09,08,22,05,33.80
2012,09,08,22,06,48.30
2012,09,08,22,07,38.60
2012,09,08,22,08,46.70
2012,09,08,22,09,32.20
2012,09,08,22,10,53.10
2012,09,08,22,11,53.10
2012,09,08,22,12,40.20
2012,09,08,22,13,33.80
2012,09,08,22,14,53.10
2012,09,08,22,15,51.50
2012,09,08,22,16,41.80
2012,09,08,22,17,40.20
2012,09,08,22,18,40.20
2012,09,08,22,19,24.20
2012,09,08,22,20,29.00
2012,09,08,22,21,40.20
2012,09,08,22,22,38.60
2012,09,08,22,23,35.40
2012,09,08,22,24,37.00
2012,09,08,22,25,30.60
2012,09,08,22,26,51.50
2012,09,08,22,27,51.50
2012,09,08,22,28,46.70
2012,09,08,22,29,40.20
2012,09,08,22,30,48.30
2012,09,08,22,31,35.40
2012,09,08,22,32,35.40
2012,09,08,22,33,51.50
2012,09,08,22,34,41.80
2012,09,08,22,35,41.80
2012,09,08,22,36,45.10
2012,09,08,22,37,40.20
2012,09,08,22,38,43.50
2012,09,08,22,39,40.20
2012,09,08,22,40,40.20
2012,09,08,22,41,35.40
2012,09,08,22,42,38.60
2012,09,08,22,43,40.20
2012,09,08,22,44,41.80
2012,09,08,22,45,53.10
2012,09,08,22,46,35.40
2012,09,08,22,47,40.20
2012,09,08,22,48,41.80
2012,09,08,22,49,40.20
2012,09,08,22,50,53.10
2012,09,08,22,51,40.20
2012,09,08,22,52,40.20
2012,09,08,22,53,49.90
2012,09,08,22,54,29.00
2012,09,08,22,55,29.00
2012,09,08,22,56,53.10
2012,09,08,22,57,32.20
2012,09,08,22,58,48.30
2012,09,08,22,59,30.60
2012,09,08,23,00,45.10
2012,09,08,23,01,48.30
2012,09,08,23,02,45.10
2012,09,08,23,03,33.80
2012,09,08,23,04,30.60
2012,09,08,23,05,43.50
2012,09,08,23,06,46.70
2012,09,08,23,07,24.20
2012,09,08,23,08,45.10
2012,09,08,23,09,46.70
2012,09,08,23,10,27.40
2012,09,08,23,11,35.40
2012,09,08,23,12,41.80
2012,09,08,23,13,48.30
2012,09,08,23,14,45.10
2012,09,08,23,15,33.80
2012,09,08,23,16,35.40
2012,09,08,23,17,41.80
2012,09,08,23,18,41.80
2012,09,08,23,19,51.50
2012,09,08,23,20,45.10
2012,09,08,23,21,43.50
2012,09,08,23,22,51.50
2012,09,08,23,23,38.60
2012,09,08,23,24,30.60
2012,09,08,23,25,43.50
2012,09,08,23,26,48.30
2012,09,08,23,27,29.00
2012,09,08,23,28,33.80
2012,09,08,23,29,35.40
2012,09,08,23,30,32.20
2012,09,08,23,31,41.80
2012,09,08,23,32,37.00
2012,09,08,23,33,38.60
2012,09,08,23,34,33.80
2012,09,08,23,35,41.80
2012,09,08,23,36,45.10
2012,09,08,23,37,35.40
2012,09,08,23,38,37.00
2012,09,08,23,39,32.20
2012,09,08,23,40,51.50
2012,09,08,23,41,40.20
2012,09,08,23,42,35.40
2012,09,08,23,43,46.70
2012,09,08,23,44,33.80
2012,09,08,23,45,40.20
2012,09,08,23,46,48.30
2012,09,08,23,47,37.00
2012,09,08,23,48,32.20
2012,09,08,23,49,43.50
2012,09,08,23,50,43.50
2012,09,08,23,51,35.40
2012,09,08,23,52,33.80
2012,09,08,23,53,54.70
2012,09,08,23,54,40.20
2012,09,08,23,55,40.20
2012,09,08,23,56,45.10
2012,09,08,23,57,41.80
2012,09,08,23,58,40.20
2012,09,08,23,59,46.70
